Flag for U.S.A. Weather past 2 weeks in Livonia, Michigan, U.S.A.

Now
33 °F

Fog.


Feels Like: 25 °F
Forecast: 16 / 35 °F
Wind: 9 mph from Northeast

Location: Detroit Metropolitan Wayne County Airport

Current Time: Jan 25, 2015 at 5:29:34 AM

Latest Report: Jan 25, 2015 at 4:53 AM


Visibility: 5 mi

Pressure: 29.76 "Hg

Humidity: 85%

Dew point: 29 °F

Location of LivoniaLocation

Historic Weather in Livonia — Graph

°F

Livonia temperature yesterday

Maximum temperature yesterday: 35 °F (at 4:53 PM)
Minimum temperature yesterday: 26 °F (at 12:53 AM)
Average temperature yesterday: 31 °F

Past Weeks' High & Low Weather Summary

 TemperatureHumidityPressure
High42 °F (Jan 17, 2:53 PM)100% (Jan 11, 10:02 PM)30.79 "Hg (Jan 11, 10:02 PM)
Low0 °F (Jan 10, 4:53 AM)46% (Jan 13, 2:53 PM)29.59 "Hg (Jan 24, 1:53 PM)
Average24 °F77%30.15 "Hg
* Reported Jan 10 4:53 AM — Jan 25 4:00 AM, Livonia, Weather by CustomWeather, © 2014

Note: Actual official high and low records may vary slightly from our data, if they occured in-between our weather recording intervals... More about our weather records

Advertising

Livonia weather history for previous 24 hours

 ConditionsComfort  
Time TempWeatherWind HumidityBarometerVisibility
4:00 AM
Jan 25
34 °FFog.No wind93%29.72 "Hg5 mi
3:53 AM34 °FFog.No wind92%29.73 "Hg5 mi
2:53 AM34 °FFog.No wind97%29.73 "Hg5 mi
1:53 AM34 °FFog.7 mph92%29.71 "Hg6 mi
12:53 AM34 °FOvercast.7 mph92%29.70 "Hg8 mi
11:53 PM
Jan 24
34 °FMostly cloudy.7 mph92%29.70 "Hg9 mi
10:53 PM35 °FMostly cloudy.10 mph88%29.69 "Hg9 mi
9:53 PM35 °FOvercast.9 mph85%29.69 "Hg10 mi
8:53 PM35 °FDrizzle. Mostly cloudy.9 mph85%29.68 "Hg8 mi
7:53 PM35 °FMostly cloudy.9 mph82%29.66 "Hg8 mi
6:53 PM35 °FMostly cloudy.9 mph82%29.64 "Hg7 mi
5:53 PM34 °FFog.7 mph85%29.62 "Hg6 mi
4:53 PM35 °FMore clouds than sun.8 mph78%29.60 "Hg5 mi
3:53 PM34 °FMostly cloudy.9 mph82%29.59 "Hg5 mi
2:53 PM33 °FOvercast.10 mph82%29.59 "Hg4 mi
1:53 PM32 °FIce fog.12 mph85%29.59 "Hg5 mi
12:53 PM31 °FIce fog.13 mph85%29.61 "Hg5 mi
11:53 AM30 °FIce fog.12 mph85%29.64 "Hg5 mi
11:04 AM30 °FIce fog.12 mph80%29.65 "Hg5 mi
10:53 AM29 °FIce fog.12 mph85%29.67 "Hg5 mi
9:53 AM28 °FIce fog.10 mph89%29.67 "Hg5 mi
8:53 AM28 °FIce fog.12 mph85%29.69 "Hg5 mi
7:53 AM27 °FIce fog.9 mph85%29.70 "Hg6 mi
6:53 AM27 °FOvercast.8 mph85%29.70 "Hg7 mi
5:53 AM27 °FOvercast.9 mph85%29.71 "Hg7 mi
Weather by CustomWeather, © 2014

See weather overviewHow to use our weather pages